Dewpoint
50 50 50 49 47 47 50 50 50 49 48 48 48 48 49 47 45 43 42 42 41 37 36 31 30 29 28 28 27 29 31 31 30 26 22 20 18 17 16 16 23 23 22 22 22 21 20 24 24 19 24 25 23 24
50 50 50 49 48 48 51 51 51 50 50 50 49 48 49 47 46 44 42 42 39 39 39 36 35 35 34 33 30 31 29 27 28 27 25 22 21 21 19 18 21 19 22 22 23 23 24 25 25 26 24 24 25 26
50 50 50 49 49 49 51 52 52 51 51 51 50 48 48 48 46 45 43 42 42 38 37 36 35 34 35 34 35 30 31 31 32 32 28 26 24 25 23 22 21 21 22 22 22 23 26 26 26 24 25 24 25 25
50 50 50 49 49 49 50 51 52 52 51 51 50 49 47 47 48 45 43 43 40 38 33 32 33 32 33 33 35 35 33 34 35 35 32 29 26 28 25 26 24 24 23 22 21 22 24 25 24 24 23 23 22 22
50 50 50 49 49 49 49 50 51 51 52 52 50 49 47 47 48 45 44 44 42 38 34 34 34 32 33 33 33 34 34 34 33 32 32 30 31 29 28 29 27 26 25 23 23 25 25 26 25 24 20 18 18 20
50 50 50 50 49 49 48 49 50 51 52 52 50 49 46 48 46 43 38 41 41 40 37 30 34 32 33 33 33 33 34 33 33 31 30 31 31 31 29 26 27 28 28 28 26 27 27 26 23 20 15 15 15 16
50 50 50 50 49 49 49 49 51 51 52 51 50 48 47 47 44 40 37 40 40 40 37 30 33 31 32 32 32 33 33 33 33 32 31 30 29 31 30 26 27 27 27 28 27 26 22 20 15 16 16 15 17 16
51 50 50 50 49 49 49 49 51 52 51 50 48 47 47 45 43 41 42 42 40 38 38 30 31 31 31 29 30 32 31 32 32 32 31 30 31 31 28 29 28 28 27 22 18 20 16 16 18 14 15 17 17 15
50 50 50 50 49 49 49 50 51 50 50 48 48 47 42 39 38 39 42 40 40 38 32 31 28 29 30 30 30 30 31 28 31 30 30 30 27 27 28 28 29 29 19 16 19 18 17 17 14 16 16 16 13 12
50 50 50 49 49 49 49 51 50 49 48 46 41 36 33 38 42 40 37 34 35 35 35 29 32 29 30 29 28 28 28 27 25 27 31 28 24 26 28 29 29 28 20 21 19 16 17 17 18 15 16 15 14 14
50 50 50 50 50 50 50 49 48 45 42 38 33 32 39 42 38 35 30 29 29 27 29 29 30 28 30 28 28 28 26 27 22 26 24 23 23 25 27 28 26 23 21 18 16 16 19 20 21 21 19 19 19 19
49 49 49 49 49 48 48 47 44 40 38 37 37 39 38 34 31 27 25 26 24 23 29 28 28 28 31 31 28 28 25 25 20 27 24 20 24 26 26 27 20 18 18 18 19 19 20 19 19 19 20 21 23 24
48 47 47 46 46 45 46 43 41 40 39 38 33 31 29 29 23 21 18 20 22 26 28 28 27 29 31 31 29 28 25 23 27 23 19 21 24 24 26 28 25 23 17 18 18 19 20 20 21 22 22 21 19 18
43 44 44 44 44 45 42 40 40 39 36 31 28 22 23 21 21 22 19 22 27 29 28 28 28 27 29 27 28 25 26 25 20 18 18 23 24 24 20 23 20 18 18 18 19 19 19 20 21 22 23 21 20 18
39 40 40 41 42 41 41 41 41 38 33 28 27 21 21 22 23 25 26 27 28 30 29 28 28 27 27 26 26 26 22 18 18 18 22 25 24 25 21 22 22 22 21 21 21 21 21 23 23 22 22 22 21 20
40 39 39 39 39 39 40 40 39 36 32 27 25 21 21 22 22 25 26 28 30 30 31 31 26 25 24 24 23 21 20 17 19 24 27 24 23 23 24 24 25 24 20 18 18 21 22 23 23 23 22 22 22 21
37 36 37 38 39 41 40 37 35 30 27 25 23 26 24 24 25 25 26 26 29 30 27 26 23 21 23 22 21 22 21 22 25 27 24 20 20 19 19 23 24 22 19 19 19 20 21 23 25 26 24 23 23 23
35 37 37 37 40 38 36 35 30 28 24 25 23 26 26 23 22 22 24 27 29 29 29 26 27 21 19 17 15 22 25 27 26 23 22 21 20 19 20 21 20 20 21 21 22 23 24 24 25 24 23 23 23 23
36 39 38 40 38 34 31 30 31 25 25 25 25 24 25 25 25 25 24 26 29 30 29 26 21 21 19 19 18 21 23 23 19 16 16 17 16 16 17 19 20 21 22 23 23 23 22 21 21 21 21 22 22 23
37 38 40 39 36 32 28 28 31 26 23 25 26 26 25 25 25 25 25 26 27 27 25 23 19 17 17 17 19 18 18 18 17 16 16 15 15 16 18 20 20 21 21 22 23 24 23 23 22 22 23 23 23 23
34 37 37 37 33 31 28 27 25 24 24 24 23 24 24 23 24 24 24 27 25 24 21 21 20 19 18 17 16 17 17 18 17 16 16 16 17 18 19 20 21 21 21 21 21 21 22 22 22 22 22 22 23 23
36 37 35 35 31 30 29 29 26 25 23 23 22 22 22 21 21 22 24 23 22 19 19 17 16 16 17 17 17 18 18 18 18 18 20 20 20 19 19 20 21 22 23 23 23 23 22 23 23 23 23 23 24 24
35 34 32 31 27 26 24 28 23 22 19 20 19 18 18 18 18 20 18 22 21 18 18 19 19 20 20 20 20 20 19 19 19 19 18 18 18 19 21 21 21 22 23 23 23 23 24 24 24 24 24 24 24 23
32 28 25 25 24 20 24 22 24 20 18 17 15 13 14 14 17 17 16 12 13 14 15 16 18 17 17 18 18 18 18 19 19 19 19 19 19 20 20 20 20 20 22 22 22 23 23 23 23 23 23 23 23 23
19 21 24 20 21 18 17 18 18 17 14 15 13 11 13 14 13 13 10 9 12 13 15 15 16 16 16 15 16 16 17 17 18 18 18 19 20 21 21 21 21 20 22 23 23 23 23 24 24 24 24 24 23 23
15 18 19 18 18 17 15 13 14 14 14 12 11 14 13 14 11 8 10 10 11 13 15 15 15 15 16 17 16 16 16 17 19 19 19 20 20 20 21 21 21 22 23 24 24 24 24 24 24 24 23 22 22 23
14 14 20 21 19 18 16 15 13 14 11 10 12 11 12 10 9 11 12 15 13 16 18 19 18 17 16 15 16 17 17 19 20 20 19 20 20 21 22 22 21 22 23 24 25 25 24 23 23 22 22 23 23 24
19 17 15 19 19 19 15 16 14 11 11 14 13 10 9 10 6 8 12 15 19 20 21 22 22 21 20 20 21 21 22 22 23 24 24 24 24 24 24 24 24 25 25 25 25 25 25 24 23 23 23 23 24 25
21 20 19 17 18 18 18 16 14 16 16 15 12 9 9 11 12 14 15 17 20 21 21 21 21 23 24 24 25 25 25 24 23 22 22 22 22 22 25 26 26 26 26 26 26 26 26 26 26 25 25 26 26 27
21 21 17 17 16 15 16 20 18 19 18 16 15 15 15 16 17 19 20 21 21 21 22 22 23 23 23 23 23 24 25 26 26 24 23 22 22 24 25 25 25 25 25 25 24 25 25 25 24 24 24 24 25 24
22 21 19 18 16 16 19 21 20 18 18 17 18 18 17 18 19 20 20 20 21 22 22 22 23 24 24 24 24 23 23 24 25 25 25 25 25 25 25 25 25 25 25 24 23 23 22 22 22 23 23 23 23 23
19 19 18 15 14 17 16 16 17 16 17 17 18 18 19 18 17 18 20 21 20 21 22 23 23 23 24 25 25 24 24 24 24 25 24 24 24 25 25 25 25 25 25 24 23 22 22 21 22 22 22 22 23 24
17 17 16 16 15 15 15 14 14 13 13 12 12 13 15 16 14 16 20 22 21 21 21 22 22 22 21 20 20 22 22 21 22 24 24 24 24 25 26 26 26 26 25 24 23 23 23 22 22 23 23 24 25 24
Wind_Speed
27 27 25 23 21 19 19 17 15 14 11 8 4 2 3 6 8 4 2 4 3 2 0 1 1 5 3 3 4 6 4 4 6 6 4 3 4 2 3 2 5 10 11 8 9 8 10 4 6 4 4 3 7 7
29 28 27 25 23 21 20 19 17 15 13 10 7 4 2 4 6 4 1 2 2 2 1 1 2 2 2 3 0 5 4 1 3 5 3 2 4 4 4 3 6 6 5 2 9 5 6 5 5 5 4 3 4 5
31 29 27 25 24 23 22 23 20 18 15 12 9 6 3 2 4 4 1 2 2 1 3 2 2 3 2 1 1 4 3 1 2 3 2 2 7 3 5 7 5 7 8 5 3 1 7 10 6 4 3 3 2 3
31 30 28 26 25 24 22 22 20 19 17 14 11 8 5 2 1 2 1 1 1 1 3 2 3 2 3 4 2 2 3 3 2 0 3 4 5 1 3 4 5 2 8 8 10 14 6 7 5 6 3 1 2 3
33 31 28 27 26 25 23 22 21 20 18 16 13 11 7 3 3 1 1 1 0 2 1 2 1 2 3 1 1 1 5 5 4 3 4 5 2 3 3 3 14 10 12 13 10 3 3 8 6 4 3 1 2 5
35 33 31 28 26 25 24 23 22 21 19 18 16 13 9 8 6 2 3 1 1 1 1 2 2 1 4 5 4 2 2 3 4 4 5 4 2 3 5 7 4 9 6 7 9 5 2 6 9 4 3 1 4 7
37 34 31 28 27 26 25 24 23 22 21 22 19 14 11 11 3 2 1 2 2 1 1 3 2 2 2 2 2 2 1 1 3 3 4 3 4 4 5 13 4 7 8 6 4 6 4 7 5 2 2 6 7 10
36 34 31 30 29 29 27 25 23 22 23 20 16 15 14 12 9 2 3 3 2 1 1 3 3 2 3 3 2 0 3 2 3 2 1 3 3 4 10 14 16 9 6 7 6 5 6 7 2 2 5 8 12 14
37 34 31 29 29 29 28 26 23 24 23 24 19 22 5 3 4 3 3 2 1 1 2 3 4 2 3 2 2 3 2 4 2 4 4 4 7 13 13 14 10 13 11 12 8 6 4 2 3 6 7 10 12 15
36 32 29 28 27 26 28 27 28 28 27 26 10 6 4 4 11 8 1 3 2 2 2 5 0 4 4 4 3 4 2 3 3 5 3 6 12 20 11 10 8 14 13 12 10 5 3 3 5 8 11 13 15 17
29 28 27 24 23 21 24 30 33 33 20 3 4 4 3 7 3 2 4 4 5 4 6 5 8 5 4 4 4 3 3 3 4 3 4 5 7 11 12 12 11 15 13 8 4 2 3 6 10 12 14 15 16 17
26 27 25 25 26 29 34 39 37 13 7 9 12 7 4 3 3 4 5 3 7 6 7 6 5 5 3 1 3 3 3 3 5 6 4 5 7 4 10 15 15 15 8 5 5 6 7 9 12 14 16 19 20 21
29 32 33 34 35 36 35 30 23 30 25 9 3 4 6 3 6 8 10 7 6 6 8 7 6 5 2 2 3 5 6 6 3 4 5 8 3 2 6 10 14 8 4 4 4 6 9 13 15 15 18 18 19 20
32 31 30 29 29 29 32 32 34 15 6 4 6 7 7 6 7 6 4 3 1 5 11 9 6 3 3 5 3 4 3 3 4 6 7 5 6 8 7 9 12 7 5 5 9 11 15 18 20 18 18 19 18 21
30 28 27 23 22 26 25 28 14 6 4 3 4 5 6 2 1 2 2 2 2 6 9 5 3 3 3 4 5 4 4 6 6 6 2 7 7 7 8 7 9 9 8 9 10 14 19 19 17 19 19 17 19 21
22 17 9 21 20 21 23 18 5 2 3 3 2 2 2 3 3 3 4 3 4 7 3 2 3 3 6 4 7 10 5 8 4 4 1 3 6 1 9 13 15 13 16 20 16 15 18 20 22 22 23 22 22 22
8 4 13 17 18 18 12 4 4 3 2 2 2 2 2 1 2 3 4 4 7 7 3 3 5 8 1 5 5 5 5 2 2 3 4 10 11 13 14 15 15 19 23 22 21 21 22 22 20 20 24 27 22 21
4 8 14 19 15 8 3 2 3 4 3 3 4 6 5 2 4 3 5 6 7 5 4 4 1 7 7 6 5 5 5 6 8 13 14 13 13 14 13 17 20 20 22 22 23 24 23 23 20 22 22 22 20 21
5 9 18 20 8 5 3 1 1 4 2 2 1 2 2 2 4 0 3 5 6 0 2 3 8 6 7 6 12 14 14 13 19 20 19 19 19 20 20 21 22 23 23 24 25 23 22 22 23 23 21 20 20 20
8 13 25 18 6 3 3 3 1 3 4 2 2 3 2 1 1 2 6 8 6 4 8 7 12 14 16 18 19 24 23 20 19 21 21 18 18 21 21 20 20 21 21 23 23 23 20 20 21 17 17 18 18 22
7 10 11 6 3 3 2 4 3 2 3 2 1 1 1 2 3 4 8 6 7 6 9 11 16 21 24 27 23 20 23 22 21 20 23 24 23 21 22 23 23 21 21 22 22 21 21 21 21 18 18 19 19 20
4 10 3 4 2 2 1 3 3 5 4 2 2 2 3 4 7 9 4 7 9 16 16 22 24 23 23 23 24 23 22 23 22 22 26 24 22 23 24 22 19 20 21 23 21 22 25 21 18 18 18 20 21 20
9 4 3 1 3 6 2 7 4 5 3 4 2 3 4 5 5 1 6 8 9 17 21 21 25 23 22 26 25 26 28 26 22 24 23 22 19 20 20 22 21 20 23 26 19 21 21 21 20 19 18 20 19 20
3 3 4 4 4 1 1 2 3 4 3 3 4 4 5 6 4 5 9 14 20 20 18 21 16 21 20 22 24 25 26 15 17 19 22 21 19 22 19 21 23 21 22 23 21 18 19 21 21 19 19 19 19 20
5 3 2 3 2 4 5 5 5 5 5 8 4 6 5 4 5 6 11 17 15 18 19 18 17 19 22 23 22 23 24 17 18 21 28 20 19 21 21 20 21 24 20 17 21 17 21 20 20 19 20 19 21 21
6 8 10 10 5 7 10 6 8 10 6 7 10 3 1 3 4 9 9 10 14 16 18 19 19 18 20 22 24 23 25 17 16 21 28 21 19 21 23 24 24 28 19 17 18 19 21 19 20 20 21 23 24 22
7 10 6 4 4 5 4 2 3 4 6 8 5 6 6 6 9 9 9 10 13 13 16 18 17 19 23 26 24 23 22 20 17 23 24 24 22 20 20 25 28 30 22 16 16 19 20 21 20 20 22 21 20 18
5 10 11 10 6 7 6 6 7 8 8 7 6 9 8 9 15 18 18 14 14 16 17 17 17 20 23 24 23 22 22 20 20 20 16 18 19 20 22 23 25 31 26 23 22 19 18 20 23 23 21 21 21 14
6 6 10 11 7 6 10 11 10 10 7 10 8 11 16 16 23 26 29 24 20 20 24 25 23 17 19 17 17 17 17 17 16 22 26 24 22 19 12 16 16 17 16 17 20 22 21 20 21 20 20 18 16 14
7 10 9 10 10 15 13 16 12 6 9 13 13 19 23 27 31 25 25 24 23 24 24 23 21 18 19 18 19 18 15 14 14 18 21 21 20 16 13 12 14 15 15 15 15 14 15 14 14 14 13 11 11 12
7 12 6 8 12 14 15 9 11 10 11 17 20 23 31 31 30 24 23 22 21 20 19 20 18 16 13 14 14 15 16 12 13 17 20 17 18 19 18 17 16 15 13 13 13 13 14 14 13 14 13 15 15 14
8 11 9 11 16 3 3 6 9 15 20 20 26 21 23 13 12 8 5 5 10 12 13 13 13 16 12 9 11 12 15 16 16 13 12 12 14 16 18 18 16 14 13 13 14 14 14 14 13 13 13 14 14 13
3 3 2 4 5 4 3 3 4 7 8 11 13 17 16 9 9 6 1 1 2 6 9 9 9 10 12 13 13 13 11 9 8 12 18 19 20 20 18 16 15 13 14 15 15 13 14 13 14 14 13 13 11 9
Wind_Direction
212 208 209 218 228 232 225 219 219 220 232 244 242 312 358 10 13 332 76 25 12 307 96 262 185 175 159 225 247 132 153 200 188 221 238 236 249 192 263 180 182 186 181 196 205 230 261 142 140 215 56 26 353 355
210 211 209 214 222 218 220 219 222 224 229 231 226 223 288 356 8 356 320 14 357 239 347 7 3 9 33 73 191 182 335 150 199 227 242 256 231 205 235 248 204 238 225 267 218 244 72 128 63 79 47 44 14 337
209 209 207 211 216 213 217 218 219 221 224 228 217 216 221 350 33 21 69 346 294 317 220 195 199 44 52 10 128 187 191 337 229 347 300 271 241 204 228 225 206 221 227 234 313 191 228 204 132 112 93 77 358 318
206 205 205 206 211 209 214 221 218 214 216 217 217 207 203 204 174 339 2 27 332 77 277 136 117 108 350 338 269 224 109 138 90 252 248 257 255 218 269 321 251 278 162 219 245 257 196 178 140 141 126 133 339 338
204 202 205 205 208 210 209 215 212 213 207 209 206 200 186 181 149 99 118 125 348 247 258 318 108 62 20 327 211 218 206 194 184 191 211 232 268 256 228 280 250 194 225 219 261 3 256 155 164 147 157 99 354 338
200 202 203 207 209 209 209 210 213 209 205 201 197 192 178 154 158 268 275 118 112 275 158 275 104 68 42 76 103 136 163 217 227 210 217 220 188 210 252 250 238 199 246 255 252 162 115 128 148 143 147 2 341 324
200 198 198 204 207 208 207 208 208 207 200 193 185 173 163 154 142 235 303 33 144 292 311 291 240 119 93 110 77 108 123 182 245 234 239 250 191 204 241 248 181 209 210 191 173 148 151 165 151 127 1 337 323 310
196 192 196 201 206 207 203 204 201 199 187 165 154 143 135 113 112 198 57 26 315 29 338 250 257 222 174 158 166 111 166 193 205 265 254 230 169 222 249 249 253 211 196 170 161 183 125 134 147 338 337 323 319 316
193 191 194 198 200 203 203 196 189 179 162 148 142 119 108 106 190 131 116 132 35 305 245 225 218 229 164 124 120 149 208 206 100 242 226 202 208 228 235 238 219 192 181 166 151 140 144 201 296 306 307 305 300 298
187 182 191 198 201 207 205 188 167 154 139 131 108 117 182 149 115 116 72 189 195 221 231 241 254 189 182 169 152 146 195 234 235 214 129 232 249 248 240 228 217 175 162 155 154 175 182 262 274 300 293 290 289 291
173 183 188 187 187 188 181 161 139 120 112 64 111 113 102 134 110 178 198 202 164 230 214 226 204 179 192 166 168 221 201 203 257 159 221 248 260 245 211 177 172 165 161 167 153 171 249 262 272 278 284 282 287 292
174 175 169 164 151 151 148 142 138 123 119 125 106 103 103 139 121 193 203 195 214 227 181 183 174 193 141 222 191 197 214 182 248 146 244 257 252 154 170 179 165 158 157 186 224 240 255 263 268 271 274 278 279 279
149 146 144 140 140 140 139 126 110 116 114 101 95 125 143 146 178 194 192 207 210 193 176 157 151 153 136 194 179 183 211 223 134 226 242 245 2 225 198 189 177 174 192 238 260 263 270 277 279 272 277 277 286 287
92 99 107 117 127 134 118 119 128 128 88 95 149 155 204 178 221 201 204 168 107 144 147 159 134 150 154 173 185 214 168 182 234 233 239 303 317 186 151 147 151 182 203 251 268 271 274 278 279 275 267 270 276 280
94 95 97 99 117 121 129 142 113 59 91 122 148 179 208 251 116 154 130 141 114 141 135 121 106 180 155 204 206 203 202 231 225 235 260 349 356 178 195 216 232 257 280 285 266 258 260 268 272 274 273 272 278 283
112 97 110 123 123 133 138 132 102 101 83 123 113 141 128 195 197 176 175 144 153 144 122 146 141 191 216 212 201 211 220 211 227 198 218 25 40 287 239 254 259 275 287 299 291 278 275 280 278 278 286 286 282 280
74 91 142 128 131 129 107 76 71 67 155 165 164 149 170 312 156 176 172 171 158 163 190 173 204 220 146 224 220 215 231 237 238 194 291 301 288 287 280 259 265 281 285 291 286 280 278 272 265 266 272 280 278 276
62 128 145 144 133 83 68 58 115 149 167 192 174 176 198 236 150 157 186 158 156 196 173 225 221 207 226 217 225 222 253 260 254 272 284 289 289 291 276 266 276 277 274 270 268 269 268 270 270 268 271 271 276 279
134 143 161 133 104 92 103 101 132 176 140 202 171 169 199 199 233 132 154 185 214 279 196 212 239 226 242 271 287 291 289 280 286 289 293 298 293 293 292 284 270 267 268 270 272 272 276 280 273 275 283 283 276 280
104 140 145 141 104 91 104 89 34 129 162 176 200 190 224 240 19 202 211 208 200 197 217 227 244 265 282 274 265 269 274 282 287 291 293 295 289 283 280 277 276 275 274 275 275 274 276 276 271 272 269 266 270 276
75 111 81 74 61 70 108 145 145 170 137 183 357 181 177 328 260 245 248 204 209 220 244 243 255 255 253 260 270 281 283 285 285 285 284 284 284 285 282 280 279 279 278 278 275 275 275 271 277 278 275 272 270 272
92 91 82 56 83 96 125 163 114 127 148 115 168 193 199 211 220 229 227 220 239 240 239 247 252 259 266 272 274 274 276 278 278 276 274 273 274 278 280 279 282 280 277 274 276 275 272 269 271 272 273 273 278 277
98 88 85 80 170 189 136 152 164 175 177 184 157 214 224 219 222 125 234 224 244 245 249 251 255 262 262 267 272 274 271 269 273 272 272 272 270 267 270 276 276 269 269 271 265 265 268 273 273 271 269 269 273 280
75 124 151 184 199 152 112 160 118 133 140 192 199 238 226 223 158 214 250 255 252 257 254 253 253 263 266 262 262 263 267 266 257 263 265 263 267 269 262 256 263 263 257 264 270 268 266 268 272 271 269 271 275 279
123 180 168 193 133 150 185 187 193 185 226 201 223 253 234 176 218 242 255 262 261 260 260 259 252 246 252 260 265 264 264 256 251 255 263 260 256 261 266 263 264 267 269 263 264 262 264 264 264 265 268 269 272 281
198 206 194 201 192 187 194 191 201 208 199 208 225 240 191 211 240 246 243 254 243 241 242 244 245 249 251 247 258 267 271 271 254 254 265 270 263 259 262 269 274 275 262 243 247 251 256 262 266 268 269 272 279 284
209 203 197 208 171 138 175 191 172 195 202 217 213 183 187 226 242 247 255 252 255 246 238 237 245 253 265 275 275 273 276 275 262 261 269 272 269 263 258 261 269 269 277 266 249 243 249 259 265 267 270 275 275 278
205 181 190 181 185 189 203 192 195 219 228 206 171 200 209 219 258 272 277 279 270 275 272 266 257 259 265 269 274 280 280 277 278 277 273 267 258 258 262 265 265 267 270 270 267 263 250 253 261 266 270 270 276 278
186 188 149 185 187 202 218 209 224 223 198 178 220 248 255 257 271 278 283 289 293 287 285 285 284 274 271 271 267 261 262 267 272 274 273 278 290 285 270 257 254 261 265 264 265 262 260 258 260 263 265 267 275 279
200 174 191 184 195 218 224 197 232 230 215 230 250 270 276 275 272 280 284 288 286 285 283 285 286 286 280 279 281 284 276 263 243 248 266 276 277 284 290 278 272 269 268 269 270 271 274 275 277 276 278 279 272 276
163 177 211 205 235 242 248 247 250 266 263 262 259 258 264 275 288 286 275 271 269 270 271 272 277 279 278 277 276 279 285 286 265 248 247 259 271 278 284 285 281 277 267 264 267 268 267 272 267 268 271 273 276 278
185 195 208 238 257 261 302 259 258 263 271 268 267 266 271 268 278 278 265 270 267 266 269 272 268 274 284 277 276 271 269 277 285 294 299 290 283 281 283 283 280 273 262 257 257 256 255 258 266 265 267 273 273 274
193 203 227 288 279 255 249 239 257 274 264 259 261 258 256 241 250 259 273 132 266 283 292 296 294 289 292 289 278 288 289 281 274 292 299 300 294 290 291 288 278 261 254 255 256 257 262 264 266 268 267 266 272 281